1501916400.13,897,23.25,74468.5,17.09,-9.93,-10.97,0,*78
1501916401.35,898,23.19,74464.0,17.09,-9.93,-11.07,0,*7F
1501916402.55,899,23.25,74468.0,17.09,-9.01,-10.01,0,*72
1501916403.72,900,23.25,74468.5,17.09,-8.33,-9.27,0,*4F
1501916404.93,901,23.25,74468.8,17.09,-8.21,-9.11,0,*48
1501916406.14,902,23.25,74470.5,17.13,-9.61,-10.57,0,*7F
1501916407.41,903,23.25,74466.8,17.11,-9.53,-10.41,0,*7A
1501916408.68,904,23.25,74466.0,17.11,-9.53,-10.41,0,*7D
1501916409.9,905,23.25,74464.0,17.13,-9.11,-10.19,0,*75
1501916411.16,906,23.19,74460.8,17.15,-7.05,-9.11,0,*4B
1501916412.4,907,23.25,74464.0,17.13,-7.01,-9.11,0,*48
1501916413.64,908,23.25,74464.8,17.15,-3.95,-7.43,0,*41
1501916414.86,909,23.25,74464.8,17.15,-4.21,-8.25,0,*47
1501916416.04,910,23.25,74460.8,17.17,-8.37,-11.41,0,*7C
1501916417.26,911,23.19,74456.0,17.15,-6.89,-10.05,0,*75
1501916418.45,912,23.19,74460.0,17.13,-3.83,-8.21,0,*40
1501916419.68,913,23.25,74462.0,17.11,-2.07,-7.53,0,*44
1501916420.91,914,23.25,74460.8,17.11,-0.61,-7.43,0,*70
1501916422.15,915,23.25,74462.5,17.11,1.09,-4.53,0,*61
1501916423.37,916,23.25,74460.0,17.05,2.69,-2.31,0,*60
1501916424.62,917,23.25,74464.8,17.05,3.33,-1.43,0,*69
1501916425.86,918,23.25,74464.8,17.05,3.19,-2.03,0,*69
1501916427.09,919,23.25,74468.5,17.07,1.21,-4.93,0,*6C
1501916428.31,920,23.25,74470.5,17.05,-2.95,-9.75,0,*40
1501916429.53,921,23.25,74470.8,16.99,-5.65,-12.21,0,*76
1501916430.76,922,23.25,74468.5,16.95,-7.95,-13.97,0,*78
1501916432.01,923,23.25,74472.5,16.91,-10.41,-15.89,0,*4B
1501916433.24,924,23.25,74472.8,16.87,-10.67,-15.63,0,*4B
1501916434.51,925,23.25,74474.3,16.81,-11.51,-15.85,0,*40
1501916435.73,926,23.25,74472.8,16.73,-11.59,-15.15,0,*4F
1501916436.97,927,23.19,74472.5,16.73,-11.55,-14.55,0,*47
1501916438.18,928,23.25,74470.0,16.69,-11.51,-14.11,0,*47
1501916439.43,929,23.25,74472.0,16.67,-11.89,-14.15,0,*49
1501916440.67,930,23.25,74464.8,16.65,-12.57,-14.51,0,*43
1501916441.89,931,23.25,74470.5,16.61,-12.15,-14.11,0,*44
1501916443.11,932,23.25,74464.0,16.59,-14.65,-16.55,0,*4F
1501916444.33,933,23.25,74466.5,16.51,-13.43,-15.15,0,*42
1501916445.58,934,23.25,74464.8,16.51,-12.15,-13.69,0,*4A
1501916446.8,935,23.25,74462.0,16.49,-11.97,-13.55,0,*44
1501916448.01,936,23.25,74458.0,16.49,-11.81,-13.15,0,*44
1501916449.23,937,23.25,74458.3,16.47,-12.29,-13.47,0,*4D
1501916450.51,938,23.25,74458.8,16.47,-11.63,-12.75,0,*4F
1501916451.75,939,23.25,74454.8,16.47,-11.19,-12.15,0,*45
1501916452.98,940,23.25,74456.3,16.49,-10.93,-11.93,0,*4B
1501916454.23,941,23.25,74460.3,16.47,-11.33,-12.43,0,*41
1501916455.51,942,23.25,74466.0,16.47,-13.29,-14.47,0,*49
1501916456.73,943,23.25,74460.5,16.45,-12.53,-13.55,0,*42
1501916457.95,944,23.25,74460.0,16.45,-12.71,-13.93,0,*4F
1501916459.17,945,23.25,74464.0,16.45,-13.65,-15.35,0,*40
1501916460.42,946,23.25,74468.8,16.39,-12.61,-14.01,0,*4B
1501916461.64,947,23.25,74464.0,16.39,-11.33,-12.93,0,*43
1501916462.88,948,23.25,74470.5,16.33,-13.69,-15.25,0,*41
1501916464.15,949,23.25,74466.0,16.33,-12.11,-13.61,0,*48
1501916465.37,950,23.25,74470.3,16.31,-10.85,-13.01,0,*4B
1501916466.59,951,23.25,74466.5,16.31,-11.07,-13.23,0,*41
1501916467.82,952,23.25,74464.0,16.31,-10.27,-12.07,0,*46
1501916469.07,953,23.25,74470.5,16.29,-9.45,-10.35,0,*71
1501916470.3,954,23.25,74468.5,16.33,-7.83,-10.15,0,*7B
1501916471.57,955,23.25,74470.0,16.37,-11.33,-12.71,0,*42
1501916472.84,956,23.25,74464.8,16.37,-9.53,-10.79,0,*74
1501916474.07,957,23.25,74466.0,16.33,-7.95,-9.27,0,*46
1501916475.29,958,23.25,74462.3,16.39,-7.77,-8.89,0,*4A
1501916476.53,959,23.25,74460.5,16.41,-4.09,-5.23,0,*43
1501916477.74,960,23.25,74462.0,16.45,-4.81,-7.49,0,*43
1501916478.96,961,23.25,74462.5,16.47,-4.81,-7.53,0,*4B
1501916480.18,962,23.25,74460.3,16.49,-4.01,-6.39,0,*43
1501916481.36,963,23.25,74462.3,16.49,-5.39,-8.41,0,*49
1501916482.61,964,23.25,74460.8,16.51,-7.65,-11.19,0,*79
1501916483.82,965,23.25,74462.5,16.49,-6.59,-9.41,0,*4B
1501916485.03,966,23.25,74462.8,16.49,-4.57,-7.39,0,*45
1501916486.21,967,23.25,74466.0,16.49,-2.35,-6.47,0,*4E
1501916487.45,968,23.25,74470.0,16.47,-0.73,-5.93,0,*75
1501916488.69,969,23.25,74470.3,16.47,-2.07,-8.85,0,*4F
1501916489.93,970,23.25,74470.0,16.47,-3.87,-11.81,0,*72
1501916491.12,971,23.25,74470.0,16.43,-7.53,-13.23,0,*70
1501916492.39,972,23.25,74466.3,16.41,-8.03,-12.75,0,*79
1501916493.62,973,23.25,74468.0,16.39,-9.01,-12.79,0,*78
1501916494.83,974,23.25,74470.5,16.37,-8.59,-12.03,0,*70
1501916496.08,975,23.25,74474.8,16.37,-11.77,-14.61,0,*47
1501916497.33,976,23.25,74466.0,16.29,-12.93,-15.43,0,*43
1501916498.59,977,23.25,74466.5,16.27,-13.29,-15.35,0,*4D
1501916499.84,978,23.25,74466.5,16.23,-10.67,-12.65,0,*4D
1501916501.07,979,23.25,74468.0,16.23,-10.67,-12.47,0,*4C
1501916502.29,980,23.25,74468.3,16.27,-10.27,-11.59,0,*46
1501916503.51,981,23.25,74458.8,16.23,-10.45,-11.77,0,*4B
1501916504.75,982,23.25,74452.8,16.21,-10.57,-11.85,0,*44
1501916505.95,983,23.25,74466.3,16.23,-9.75,-10.97,0,*7D
1501916507.15,984,23.25,74462.3,16.27,-11.23,-12.43,0,*4F
1501916508.35,985,23.25,74464.0,16.27,-9.31,-10.49,0,*7C
1501916509.6,986,23.25,74456.3,16.23,-12.79,-13.83,0,*48
1501916510.82,987,23.25,74464.3,16.23,-11.11,-12.07,0,*49
1501916512.01,988,23.25,74460.8,16.23,-9.71,-10.85,0,*71
1501916513.24,989,23.25,74464.0,16.27,-9.27,-10.63,0,*7F
1501916514.48,990,23.25,74470.8,16.29,-11.59,-13.47,0,*4C
1501916515.7,991,23.25,74468.3,16.23,-9.01,-11.37,0,*76
1501916516.93,992,23.25,74468.3,16.23,-12.11,-14.65,0,*4C
1501916518.16,993,23.25,74472.3,16.19,-10.93,-13.33,0,*48
1501916519.38,994,23.25,74470.0,16.19,-11.23,-13.83,0,*4E
1501916520.62,995,23.25,74466.0,16.15,-11.37,-13.79,0,*43
1501916521.84,996,23.25,74456.8,16.15,-12.65,-14.61,0,*4A
1501916523.05,997,23.25,74452.5,16.11,-11.81,-13.43,0,*41
1501916524.27,998,23.25,74464.5,16.07,-11.45,-12.83,0,*4C
1501916525.53,999,23.25,74462.3,16.05,-12.15,-12.75,0,*40
1501916526.77,1000,23.25,74462.8,16.05,-13.01,-13.93,0,*75
1501916528.01,1001,23.25,74466.5,16.01,-12.65,-14.29,0,*75
1501916529.28,1002,23.25,74462.3,16.01,-11.29,-12.83,0,*7B
1501916530.51,1003,23.25,74468.8,16.01,-10.53,-11.93,0,*74
1501916531.76,1004,23.25,74466.8,16.01,-11.15,-12.53,0,*7F
1501916532.98,1005,23.25,74468.3,15.99,-9.27,-10.63,0,*45
1501916534.2,1006,23.25,74468.3,16.01,-8.75,-9.61,0,*78
1501916535.42,1007,23.25,74470.3,16.03,-10.19,-11.37,0,*72
1501916536.62,1008,23.25,74466.5,16.03,-8.85,-10.27,0,*41
1501916537.82,1009,23.25,74464.8,16.03,-7.99,-9.31,0,*7D
1501916539.06,1010,23.25,74466.5,16.05,-9.41,-10.49,0,*4F
1501916540.28,1011,23.25,74464.0,16.07,-10.49,-11.29,0,*7B
1501916541.47,1012,23.25,74466.8,16.07,-10.45,-10.93,0,*74
1501916542.68,1013,23.25,74466.3,16.07,-11.19,-12.11,0,*75
1501916543.92,1014,23.25,74472.0,16.07,-10.79,-11.97,0,*78
1501916545.16,1015,23.25,74454.5,16.05,-12.89,-14.05,0,*78
1501916546.4,1016,23.25,74440.8,16.05,-12.65,-13.73,0,*7F
1501916547.6,1017,23.25,74446.5,16.03,-12.29,-13.23,0,*75
1501916548.84,1018,23.25,74452.3,16.01,-12.53,-14.15,0,*77
1501916550.08,1019,23.25,74462.5,16.01,-11.37,-12.93,0,*7F
1501916551.28,1020,23.25,74470.8,15.99,-9.93,-11.33,0,*49
1501916552.54,1021,23.25,74460.3,15.97,-9.83,-10.71,0,*40
1501916553.77,1022,23.25,74464.5,15.97,-8.85,-10.35,0,*44
1501916555.01,1023,23.25,74464.8,15.99,-9.49,-10.79,0,*42
1501916556.19,1024,23.25,74464.8,16.03,-8.63,-9.93,0,*70
1501916557.4,1025,23.25,74466.8,16.03,-7.69,-8.85,0,*72
1501916558.6,1026,23.25,74474.5,16.03,-8.85,-10.27,0,*4D
1501916559.82,1027,23.25,74472.5,16.01,-7.61,-8.55,0,*77
1501916561.01,1028,23.25,74472.8,16.03,-6.77,-7.19,0,*7B
1501916562.21,1029,23.25,74472.8,16.07,-5.93,-6.13,0,*7C
1501916563.44,1030,23.25,74478.5,16.13,-4.57,-5.39,0,*73
1501916564.62,1031,23.25,74476.3,16.15,-6.39,-7.53,0,*70
1501916565.84,1032,23.25,74478.5,16.17,-6.05,-6.77,0,*79
1501916567.06,1033,23.25,74478.5,16.21,-6.01,-7.11,0,*78
1501916568.25,1034,23.25,74482.5,16.27,-7.53,-8.97,0,*7E
1501916569.46,1035,23.25,74486.8,16.27,-9.27,-10.35,0,*43
1501916570.66,1036,23.25,74484.5,16.27,-9.93,-11.11,0,*48
1501916571.88,1037,23.25,74480.0,16.23,-10.53,-11.73,0,*7D
1501916573.11,1038,23.25,74478.5,16.27,-9.27,-10.41,0,*4D
1501916574.35,1039,23.25,74474.8,16.27,-9.15,-10.27,0,*4D
1501916575.58,1040,23.25,74472.8,16.29,-8.75,-9.93,0,*7D
1501916576.79,1041,23.25,74470.0,16.31,-7.05,-8.17,0,*70
1501916577.99,1042,23.25,74472.5,16.31,-6.01,-7.11,0,*7F
1501916579.26,1043,23.25,74464.0,16.37,-5.69,-7.27,0,*70
1501916580.5,1044,23.25,74472.3,16.41,-6.55,-7.61,0,*78
1501916581.73,1045,23.25,74470.0,16.45,-6.77,-7.73,0,*7E
1501916582.94,1046,23.25,74476.3,16.49,-6.27,-7.49,0,*7D
1501916584.18,1047,23.25,74476.3,16.51,-5.81,-6.69,0,*79
1501916585.43,1048,23.25,74476.0,16.51,-8.45,-9.53,0,*75
1501916586.64,1049,23.25,74472.8,16.53,-7.15,-7.99,0,*74
1501916587.88,1050,23.25,74472.8,16.59,-7.69,-8.75,0,*70
1501916589.08,1051,23.25,74466.8,16.61,-7.27,-8.33,0,*72
1501916590.31,1052,23.25,74458.8,16.63,-7.87,-9.15,0,*7C
1501916591.52,1053,23.25,74458.5,16.63,-7.53,-8.55,0,*71
1501916592.75,1054,23.25,74462.3,16.63,-7.27,-8.45,0,*74
1501916593.99,1055,23.25,74468.3,16.65,-7.61,-9.11,0,*71
1501916595.23,1056,23.25,74472.8,16.67,-7.95,-9.31,0,*79
1501916596.47,1057,23.25,74472.5,16.67,-9.71,-11.81,0,*4E
1501916597.66,1058,23.25,74472.0,16.65,-10.53,-13.07,0,*77
1501916598.88,1059,23.25,74470.8,16.61,-10.09,-11.63,0,*7D
1501916600.08,1060,23.25,74464.5,16.61,-8.71,-10.23,0,*44
1501916601.27,1061,23.25,74464.8,16.61,-6.59,-8.41,0,*7C
1501916602.48,1062,23.25,74468.5,16.63,-5.51,-7.49,0,*71
1501916603.69,1063,23.25,74468.3,16.65,-6.63,-8.97,0,*78
1501916604.9,1064,23.25,74474.5,16.67,-6.73,-8.25,0,*75
1501916606.13,1065,23.25,74474.0,16.67,-10.23,-12.39,0,*70
1501916607.32,1066,23.25,74468.5,16.65,-9.75,-11.11,0,*43
1501916608.53,1067,23.25,74466.0,16.63,-7.87,-9.67,0,*7F
1501916609.75,1068,23.25,74466.8,16.63,-6.55,-7.87,0,*7E
1501916610.94,1069,23.25,74466.8,16.65,-5.51,-7.23,0,*70
1501916612.12,1070,23.25,74466.0,16.65,-6.55,-8.67,0,*70
1501916613.36,1071,23.25,74462.8,16.67,-9.01,-10.27,0,*40
1501916614.55,1072,23.25,74460.8,16.65,-9.31,-10.05,0,*42
1501916615.8,1073,23.25,74456.5,16.67,-4.57,-5.19,0,*75
1501916617.07,1074,23.25,74452.3,16.67,-2.63,-2.63,0,*79
1501916618.32,1075,23.25,74454.0,16.67,-1.83,-3.03,0,*72
1501916619.51,1076,23.25,74456.0,16.69,-1.17,-3.07,0,*76
1501916620.71,1077,23.25,74454.5,16.69,-1.35,-3.23,0,*71
1501916621.93,1078,23.25,74452.8,16.69,-1.05,-3.11,0,*7C
1501916623.11,1079,23.25,74456.8,16.65,-0.19,-3.15,0,*49
1501916624.32,1080,23.25,74454.5,16.65,-1.01,-5.47,0,*76
1501916625.54,1081,23.25,74456.8,16.67,-3.87,-8.21,0,*74
1501916626.78,1082,23.25,74456.5,16.67,-5.61,-9.67,0,*7A
1501916628.0,1083,23.25,74454.0,16.61,-8.41,-11.73,0,*4E
1501916629.2,1084,23.25,74454.0,16.61,-4.77,-6.43,0,*75
1501916630.42,1085,23.25,74452.3,16.59,-6.05,-8.85,0,*7C
1501916631.66,1086,23.25,74454.5,16.55,-6.27,-8.37,0,*7A
1501916632.9,1087,23.25,74456.3,16.55,-5.55,-5.73,0,*70
1501916634.12,1088,23.25,74458.3,16.55,-4.21,-5.43,0,*7E
1501916635.39,1089,23.25,74464.0,16.59,-5.85,-7.95,0,*75
1501916636.63,1090,23.25,74464.5,16.55,-6.89,-9.57,0,*7E
1501916637.84,1091,23.25,74460.0,16.55,-5.47,-7.83,0,*79
1501916639.06,1092,23.25,74462.8,16.55,-6.77,-8.29,0,*75
1501916640.25,1093,23.25,74462.0,16.53,-7.19,-8.75,0,*72
1501916641.45,1094,23.25,74460.3,16.53,-7.73,-8.67,0,*7A
1501916642.72,1095,23.25,74460.3,16.51,-7.61,-8.03,0,*78
1501916643.91,1096,23.25,74466.5,16.49,-6.47,-6.13,0,*78
1501916645.16,1097,23.25,74464.3,16.49,-5.15,-5.11,0,*7C
1501916646.4,1098,23.25,74464.0,16.47,-5.81,-7.53,0,*74
1501916647.61,1099,23.25,74466.3,16.47,-6.73,-8.75,0,*70
1501916648.82,1100,23.25,74468.5,16.45,-5.39,-7.05,0,*76
1501916650.1,1101,23.25,74468.3,16.47,-3.59,-5.07,0,*75
1501916651.31,1102,23.25,74466.5,16.45,-3.31,-5.73,0,*79
1501916652.51,1103,23.25,74468.5,16.43,-4.61,-7.19,0,*72
1501916653.7,1104,23.25,74464.5,16.45,-3.07,-6.39,0,*77
1501916654.88,1105,23.25,74470.0,16.45,-4.53,-8.25,0,*73
1501916656.09,1106,23.25,74466.8,16.49,-3.95,-6.81,0,*71
1501916657.32,1107,23.25,74470.8,16.49,-2.67,-5.77,0,*76
1501916658.59,1108,23.25,74470.8,16.51,-3.55,-6.93,0,*79
1501916659.84,1109,23.31,74476.8,16.51,-4.21,-6.97,0,*78
1501916661.08,1110,23.25,74472.5,16.53,-5.23,-8.51,0,*75
1501916662.27,1111,23.25,74470.0,16.53,-6.01,-8.41,0,*76
1501916663.48,1112,23.25,74474.3,16.55,-6.01,-8.17,0,*70
1501916664.7,1113,23.25,74480.3,16.55,-6.55,-9.71,0,*71
1501916665.95,1114,23.25,74478.3,16.55,-11.63,-14.23,0,*7E
1501916667.15,1115,23.25,74478.5,16.49,-12.43,-14.69,0,*7D
1501916668.38,1116,23.25,74478.8,16.47,-12.29,-14.19,0,*7B
1501916669.58,1117,23.25,74472.0,16.43,-12.29,-14.11,0,*76
1501916670.86,1118,23.25,74468.3,16.41,-12.57,-14.05,0,*77
1501916672.14,1119,23.25,74462.3,16.37,-10.67,-12.15,0,*71
1501916673.38,1120,23.25,74462.5,16.37,-8.51,-9.67,0,*78
1501916674.57,1121,23.25,74458.3,16.39,-8.21,-9.31,0,*73
1501916675.78,1122,23.25,74462.5,16.39,-7.95,-8.89,0,*72
1501916676.99,1123,23.25,74462.8,16.41,-7.53,-8.55,0,*77
1501916678.24,1124,23.25,74458.0,16.45,-7.05,-7.73,0,*7C
1501916679.47,1125,23.25,74462.3,16.49,-8.11,-8.81,0,*79
1501916680.74,1126,23.25,74466.0,16.47,-7.27,-6.93,0,*73
1501916681.96,1127,23.25,74464.5,16.49,-7.19,-7.61,0,*7D
1501916683.19,1128,23.25,74470.0,16.51,-6.47,-7.11,0,*76
1501916684.38,1129,23.25,74474.5,16.53,-5.55,-6.13,0,*76
1501916685.6,1130,23.25,74470.0,16.53,-5.85,-6.51,0,*75
1501916686.85,1131,23.25,74470.8,16.59,-6.77,-7.43,0,*72
1501916688.11,1132,23.25,74474.5,16.55,-5.19,-6.19,0,*78
1501916689.36,1133,23.25,74474.5,16.59,-6.77,-8.51,0,*7C
1501916690.53,1134,23.25,74470.3,16.61,-6.69,-8.59,0,*77
1501916691.76,1135,23.25,74470.3,16.63,-8.03,-9.23,0,*7A
1501916692.98,1136,23.25,74468.5,16.63,-10.05,-11.15,0,*7A
1501916694.19,1137,23.25,74468.8,16.63,-9.93,-10.89,0,*48
1501916695.44,1138,23.25,74468.3,16.63,-10.57,-11.55,0,*77
1501916696.65,1139,23.25,74466.0,16.61,-10.45,-11.33,0,*77
1501916697.86,1140,23.25,74456.3,16.61,-9.61,-10.23,0,*47
1501916699.08,1141,23.25,74462.8,16.63,-11.19,-12.03,0,*72
1501916700.34,1142,23.25,74462.8,16.55,-11.15,-11.63,0,*7D
1501916701.58,1143,23.25,74474.8,16.55,-10.89,-11.51,0,*79
1501916702.86,1144,23.25,74472.5,16.55,-10.71,-11.51,0,*79
1501916704.07,1145,23.25,74474.0,16.55,-9.93,-10.89,0,*48
1501916705.29,1146,23.25,74474.8,16.53,-9.93,-10.75,0,*4E
1501916706.49,1147,23.25,74470.8,16.53,-10.19,-11.11,0,*76
1501916707.71,1148,23.25,74470.5,16.53,-10.01,-10.71,0,*77
1501916708.9,1149,23.25,74470.8,16.53,-9.89,-10.57,0,*4A
1501916710.1,1150,23.25,74464.0,16.53,-10.15,-10.89,0,*7C
1501916711.32,1151,23.25,74466.8,16.53,-10.57,-11.37,0,*7F
1501916712.58,1152,23.25,74460.3,16.51,-10.31,-11.07,0,*7D
1501916713.8,1153,23.25,74460.0,16.53,-10.01,-10.75,0,*79
1501916715.0,1154,23.25,74464.0,16.53,-10.15,-10.53,0,*7F
1501916716.19,1155,23.25,74466.0,16.53,-10.53,-11.15,0,*7F
1501916717.41,1156,23.25,74468.8,16.53,-9.89,-10.41,0,*43
1501916718.63,1157,23.25,74468.8,16.53,-9.49,-10.15,0,*4F
1501916719.88,1158,23.25,74460.8,16.51,-9.53,-10.31,0,*4F
1501916721.1,1159,23.25,74464.0,16.53,-10.53,-11.37,0,*73
1501916722.3,1160,23.25,74466.5,16.53,-10.31,-11.01,0,*78
1501916723.52,1161,23.25,74454.3,16.53,-11.11,-11.85,0,*76
1501916724.77,1162,23.25,74458.5,16.51,-11.15,-11.77,0,*7E
1501916726.0,1163,23.25,74452.3,16.53,-11.01,-11.73,0,*7C
1501916727.26,1164,23.25,74456.0,16.51,-10.63,-11.41,0,*7D
1501916728.52,1165,23.25,74456.0,16.51,-10.19,-10.79,0,*7B
1501916729.77,1166,23.25,74460.0,16.51,-10.05,-10.75,0,*79
1501916731.03,1167,23.25,74460.3,16.51,-10.23,-11.07,0,*78
1501916732.25,1168,23.25,74462.8,16.49,-9.41,-9.97,0,*72
1501916733.49,1169,23.25,74456.8,16.51,-9.01,-10.19,0,*40
1501916734.7,1170,23.25,74456.0,16.53,-6.81,-8.81,0,*75
1501916735.93,1171,23.25,74460.3,16.51,-8.29,-10.31,0,*48
1501916737.12,1172,23.25,74454.3,16.53,-10.05,-11.41,0,*78
1501916738.36,1173,23.25,74458.0,16.51,-8.55,-10.19,0,*4B
1501916739.55,1174,23.25,74454.8,16.53,-6.81,-9.05,0,*7C
1501916740.79,1175,23.25,74456.0,16.55,-8.81,-10.05,0,*4D
1501916742.03,1176,23.25,74458.8,16.55,-6.89,-9.37,0,*71
1501916743.28,1177,23.25,74454.5,16.59,-8.03,-10.01,0,*4D
1501916744.54,1178,23.25,74460.0,16.59,-7.69,-10.27,0,*45
1501916745.78,1179,23.25,74460.8,16.55,-8.97,-11.37,0,*46
1501916746.97,1180,23.25,74460.0,16.53,-8.67,-11.01,0,*4C
1501916748.19,1181,23.25,74462.8,16.53,-9.31,-12.07,0,*4A
1501916749.44,1182,23.25,74452.5,16.51,-9.89,-12.71,0,*49
1501916750.7,1183,23.25,74458.3,16.51,-11.77,-14.61,0,*77
1501916751.96,1184,23.25,74454.3,16.47,-9.83,-13.29,0,*4E
1501916753.19,1185,23.25,74456.0,16.43,-7.23,-10.63,0,*42
1501916754.41,1186,23.25,74458.0,16.43,-6.85,-9.49,0,*7C
1501916755.63,1187,23.25,74452.5,16.43,-6.51,-9.49,0,*74
1501916756.84,1188,23.25,74454.0,16.43,-4.13,-7.05,0,*79
1501916758.06,1189,23.25,74454.0,16.43,-2.07,-5.35,0,*7A
1501916759.3,1190,23.25,74454.0,16.41,-2.31,-4.69,0,*7D
1501916760.51,1191,23.25,74450.0,16.39,0.05,-2.51,0,*56
1501916761.77,1192,23.25,74454.0,16.41,0.55,-1.91,0,*60
1501916762.97,1193,23.25,74452.0,16.43,0.71,-3.15,0,*6B
1501916764.21,1194,23.25,74458.0,16.43,1.51,-2.67,0,*5B
1501916765.39,1195,23.25,74454.3,16.43,2.27,-2.15,0,*5D
1501916766.62,1196,23.25,74454.3,16.41,3.19,-1.55,0,*57
1501916767.84,1197,23.25,74458.0,16.39,3.53,-2.23,0,*55
1501916769.07,1198,23.25,74462.5,16.37,2.77,-2.83,0,*59
1501916770.28,1199,23.25,74464.3,16.33,-0.29,-6.35,0,*41
1501916771.52,1200,23.25,74470.3,16.33,-0.73,-7.01,0,*4B
1501916772.8,1201,23.25,74470.8,16.29,-1.01,-7.61,0,*73
1501916774.04,1202,23.25,74464.3,16.29,-7.01,-14.15,0,*47
1501916775.29,1203,23.25,74456.8,16.23,-6.63,-11.67,0,*49
1501916776.54,1204,23.25,74464.5,16.19,-7.91,-10.63,0,*4E
1501916777.78,1205,23.25,74466.0,16.21,-5.47,-7.99,0,*7E
1501916779.05,1206,23.25,74464.3,16.21,-3.43,-5.77,0,*7D
1501916780.29,1207,23.25,74468.0,16.29,-3.19,-5.15,0,*7F
1501916781.53,1208,23.25,74470.3,16.33,-5.47,-7.05,0,*75
1501916782.77,1209,23.25,74464.8,16.37,-5.19,-6.73,0,*7B
1501916783.99,1210,23.25,74460.8,16.39,-5.51,-6.97,0,*7B
1501916785.21,1211,23.25,74464.3,16.43,-7.19,-9.15,0,*7C
1501916786.42,1212,23.25,74460.3,16.43,-8.17,-10.01,0,*43
1501916787.64,1213,23.25,74460.8,16.43,-8.11,-9.75,0,*7F
1501916788.83,1214,23.25,74452.8,16.43,-8.29,-9.89,0,*70
1501916790.02,1215,23.25,74452.3,16.43,-7.11,-6.69,0,*74
1501916791.22,1216,23.25,74458.3,16.45,-3.79,-3.79,0,*7F
1501916792.46,1217,23.25,74468.5,16.47,-2.35,-1.95,0,*75
1501916793.7,1218,23.25,74470.0,16.49,-1.39,-2.03,0,*77
1501916794.94,1219,23.25,74464.8,16.53,-1.99,-3.63,0,*70
1501916796.13,1220,23.25,74466.3,16.53,-2.31,-3.27,0,*7B
1501916797.37,1221,23.25,74468.0,16.59,-2.75,-4.53,0,*74
1501916798.58,1222,23.25,74462.3,16.61,-5.81,-8.29,0,*71
1501916799.8,1223,23.25,74458.5,16.55,-6.55,-7.87,0,*76
1501916801.05,1224,23.25,74462.3,16.55,-5.07,-6.81,0,*72
1501916802.29,1225,23.25,74462.3,16.59,-4.37,-5.85,0,*7A
1501916803.52,1226,23.25,74460.3,16.59,-3.91,-4.49,0,*73
1501916804.73,1227,23.25,74470.3,16.61,-3.19,-3.59,0,*7F
1501916805.96,1228,23.25,74468.5,16.63,-1.95,-3.19,0,*70
1501916807.18,1229,23.25,74472.8,16.67,-3.27,-4.37,0,*75
1501916808.41,1230,23.25,74468.3,16.65,-2.67,-3.63,0,*7C
1501916809.63,1231,23.25,74474.3,16.67,-0.73,-2.15,0,*48
1501916810.85,1232,23.25,74476.8,16.67,-3.79,-6.77,0,*72
1501916812.05,1233,23.25,74464.3,16.65,-7.23,-10.27,0,*48
1501916813.3,1234,23.25,74456.0,16.65,-8.51,-11.29,0,*4A
1501916814.54,1235,23.25,74460.0,16.63,-6.73,-9.11,0,*71
1501916815.77,1236,23.25,74458.8,16.61,-5.65,-8.03,0,*76
1501916816.97,1237,23.25,74456.8,16.63,-7.49,-8.71,0,*7C
1501916818.18,1238,23.25,74462.3,16.63,-8.59,-9.23,0,*7B
1501916819.45,1239,23.25,74470.0,16.63,-5.27,-5.15,0,*77
1501916820.71,1240,23.25,74468.3,16.63,-6.19,-6.97,0,*7E
1501916821.93,1241,23.25,74464.3,16.67,-6.39,-7.19,0,*7E
1501916823.2,1242,23.25,74460.3,16.67,-6.97,-7.57,0,*73
1501916824.46,1243,23.25,74466.0,16.67,-6.27,-7.69,0,*74
1501916825.7,1244,23.25,74466.5,16.67,-6.05,-8.51,0,*77
1501916826.91,1245,23.25,74464.3,16.67,-6.09,-8.71,0,*78
1501916828.12,1246,23.25,74466.5,16.71,-6.35,-8.71,0,*73
1501916829.39,1247,23.25,74464.0,16.71,-6.93,-9.15,0,*7D
1501916830.58,1248,23.25,74466.3,16.73,-6.01,-8.37,0,*7A
1501916831.83,1249,23.25,74470.0,16.75,-7.11,-9.11,0,*78
1501916833.01,1250,23.25,74464.3,16.73,-7.87,-9.75,0,*7B
1501916834.25,1251,23.25,74470.5,16.75,-5.39,-7.35,0,*71
1501916835.47,1252,23.25,74470.8,16.77,-6.35,-8.21,0,*75
1501916836.71,1253,23.25,74472.5,16.77,-6.05,-7.77,0,*7B
1501916837.94,1254,23.25,74472.5,16.81,-6.23,-8.17,0,*78
1501916839.18,1255,23.25,74478.3,16.81,-8.89,-10.35,0,*4E
1501916840.41,1256,23.25,74474.3,16.81,-7.65,-8.63,0,*7A
1501916841.66,1257,23.25,74482.3,16.81,-8.07,-9.01,0,*75
1501916842.89,1258,23.25,74476.0,16.81,-8.07,-9.31,0,*79
1501916844.14,1259,23.25,74476.8,16.77,-8.51,-10.23,0,*49
1501916845.39,1260,23.25,74480.8,16.77,-8.45,-10.41,0,*42
1501916846.65,1261,23.25,74470.8,16.81,-9.15,-11.01,0,*4B
1501916847.89,1262,23.25,74468.5,16.75,-10.01,-11.85,0,*72
1501916849.1,1263,23.25,74460.5,16.73,-9.57,-11.23,0,*42
1501916850.31,1264,23.25,74454.5,16.73,-9.89,-11.55,0,*47
1501916851.57,1265,23.25,74454.3,16.71,-10.23,-11.63,0,*79
1501916852.79,1266,23.25,74450.0,16.71,-9.01,-10.45,0,*47
1501916854.02,1267,23.25,74454.3,16.71,-9.01,-10.49,0,*4A
1501916855.28,1268,23.25,74456.5,16.71,-9.15,-10.31,0,*4F
1501916856.53,1269,23.25,74452.3,16.71,-10.35,-11.59,0,*7B
1501916857.73,1270,23.25,74448.0,16.69,-11.19,-12.47,0,*79
1501916858.93,1271,23.25,74456.0,16.69,-9.01,-10.05,0,*4C
1501916860.13,1272,23.25,74462.5,16.69,-9.23,-10.19,0,*42
1501916861.32,1273,23.25,74456.0,16.69,-9.67,-10.35,0,*4D
1501916862.52,1274,23.25,74458.5,16.69,-10.05,-10.31,0,*72
1501916863.71,1275,23.25,74460.8,16.65,-9.31,-9.93,0,*70
1501916864.93,1276,23.25,74460.5,16.67,-9.31,-10.09,0,*4A
1501916866.14,1277,23.25,74464.0,16.67,-8.75,-9.31,0,*79
1501916867.39,1278,23.25,74464.3,16.67,-9.83,-10.57,0,*46
1501916868.64,1279,23.25,74464.3,16.67,-10.15,-10.71,0,*74
1501916869.84,1280,23.25,74462.3,16.65,-10.45,-11.15,0,*76
1501916871.06,1281,23.25,74464.5,16.65,-9.79,-10.63,0,*40
1501916872.31,1282,23.25,74458.8,16.65,-10.75,-11.55,0,*73
1501916873.51,1283,23.25,74450.8,16.65,-10.31,-11.11,0,*72
1501916874.71,1284,23.25,74452.3,16.65,-10.27,-11.23,0,*73
1501916875.95,1285,23.25,74450.0,16.65,-10.75,-11.81,0,*7D
1501916877.2,1286,23.25,74450.8,16.65,-10.63,-11.81,0,*79
1501916878.39,1287,23.25,74454.8,16.61,-8.55,-10.89,0,*49
1501916879.59,1288,23.25,74456.0,16.61,-8.97,-11.41,0,*4D
1501916880.79,1289,23.25,74456.0,16.61,-8.89,-11.45,0,*47
1501916881.98,1290,23.25,74454.8,16.61,-8.97,-11.19,0,*49
1501916883.2,1291,23.25,74458.3,16.59,-6.77,-9.67,0,*73
1501916884.42,1292,23.25,74456.8,16.59,-6.05,-8.93,0,*7F
1501916885.67,1293,23.25,74460.0,16.55,-6.23,-10.19,0,*4D
1501916886.87,1294,23.25,74462.5,16.53,-6.01,-10.27,0,*41
1501916888.15,1295,23.25,74458.3,16.51,-11.97,-14.83,0,*71
1501916889.43,1296,23.25,74458.5,16.47,-10.75,-12.79,0,*7B
1501916890.66,1297,23.25,74454.8,16.47,-6.35,-8.85,0,*71
1501916891.88,1298,23.25,74458.3,16.45,-8.37,-10.79,0,*4A
1501916893.08,1299,23.25,74454.0,16.43,-4.13,-6.85,0,*73
1501916894.32,1300,23.25,74454.3,16.45,-5.77,-9.45,0,*74
1501916895.54,1301,23.25,74454.5,16.45,-1.67,-5.77,0,*7D
1501916896.73,1302,23.25,74454.8,16.45,-4.45,-7.87,0,*76
1501916897.97,1303,23.25,74454.3,16.45,-5.89,-7.27,0,*7C
1501916899.18,1304,23.25,74456.0,16.45,-4.45,-7.31,0,*7D
1501916900.38,1305,23.25,74462.3,16.45,-5.97,-8.21,0,*7C
1501916901.6,1306,23.25,74460.5,16.47,-7.15,-9.79,0,*79
1501916902.79,1307,23.25,74456.5,16.49,-8.45,-9.93,0,*78
1501916904.01,1308,23.25,74458.5,16.49,-10.05,-11.29,0,*72
1501916905.27,1309,23.25,74462.3,16.47,-9.19,-10.67,0,*43
1501916906.48,1310,23.25,74460.3,16.49,-8.03,-9.27,0,*73
1501916907.73,1311,23.25,74460.0,16.49,-6.19,-7.73,0,*78
1501916908.95,1312,23.25,74464.8,16.49,-7.19,-9.11,0,*70
1501916910.19,1313,23.25,74466.3,16.51,-6.97,-9.23,0,*7E
1501916911.41,1314,23.25,74466.5,16.49,-8.03,-10.23,0,*4B